#timestamp,LO_Frequency,Hit,StdDev 
1511168415.6,286047006.1,N
1511168435.5,286047006.1,N
1511168455.3,286047009.2,N
1511168475.1,286047008.7,N
1511168495.9,286047005.8,N
1511168515.7,286047004.0,N
1511168535.5,286047005.2,N
1511168555.3,286047000.2,N
1511168575.2,286046998.2,N
1511168595.0,286046996.7,N
1511168595.9,286046996.7,N
1511168615.7,286046995.3,N
1511168635.6,286046992.0,N
1511168655.4,286046991.4,N
1511168675.2,286046988.9,N
1511168695.1,286046991.8,N
1511168696.0,286046991.8,N
1511168715.8,286046997.5,N
1511168735.6,286047000.6,N
1511168755.5,286047002.3,N
1511168775.3,286047004.0,N
1511168795.1,286047000.3,N
1511168815.9,286047005.3,N
1511168835.7,286047006.6,N
1511168855.5,286047009.1,N
1511168875.3,286047008.8,N
1511168895.2,286047009.4,N
1511168915.0,286047009.9,N
1511168915.9,286047009.9,N
1511168935.7,286047010.6,N
1511168955.6,286047010.7,N
1511168975.4,286047010.0,N
1511168995.2,286047011.4,N
1511169015.1,286047016.0,N
1511169016.0,286047016.0,N
1511169035.8,286047012.5,N
1511169055.6,286047011.2,N
1511169075.5,286047011.6,N
1511169095.3,286047015.6,N
1511169115.1,286047010.3,N
1511169135.9,286047005.3,N
1511169155.7,286047000.0,N
1511169175.5,286047001.4,N
1511169195.4,286047003.8,N
1511169215.2,286047004.7,N
1511169235.0,286047010.0,N
1511169235.9,286047010.0,N
1511169255.8,286047009.8,N
1511169275.6,286047013.4,N
1511169295.4,286047014.4,Y
1511169315.3,286047007.2,P
1511169335.1,286047003.8,P
1511169336.0,286047003.8,N
1511169355.8,286047000.0,N
1511169375.7,286047002.2,N
1511169395.5,286046999.2,N
1511169415.3,286046993.4,N
1511169435.1,286046990.7,N
1511169455.9,286046986.9,N
1511169475.7,286046987.3,N
1511169495.5,286046993.1,N
1511169515.4,286046992.2,N
1511169535.2,286046997.6,N
1511169555.0,286047002.3,N
1511169555.9,286047002.3,N
1511169575.8,286047000.1,N
1511169595.6,286047004.2,N
1511169615.4,286047001.7,N
1511169635.3,286047005.5,N
1511169655.1,286047005.8,N
1511169656.0,286047005.8,N
1511169675.8,286047004.2,N
1511169695.7,286047000.2,N
1511169715.5,286047004.4,N
1511169735.3,286046999.4,N
1511169755.2,286046997.9,N
1511169775.9,286047000.5,N
1511169795.7,286047000.5,N
1511169815.5,286046998.1,N
1511169835.4,286047000.3,N
1511169855.2,286047003.3,N
1511169875.0,286047006.1,N
1511169875.9,286047006.1,N
1511169895.8,286047006.6,N
1511169915.6,286047008.1,N
1511169935.4,286047010.0,N
1511169955.3,286047007.8,N
1511169975.1,286047010.3,N
1511169976.0,286047010.3,N
1511169995.8,286047011.4,N
1511170015.7,286047011.3,N
1511170035.5,286047013.6,N
1511170055.3,286047012.8,N
1511170075.2,286047017.0,Y
1511170095.9,286047011.8,P
1511170115.7,286047009.7,N
1511170135.6,286047011.1,P
1511170155.4,286047013.1,Y
1511170175.2,286047006.2,P
1511170195.1,286047002.3,N
1511170196.0,286047002.3,N
1511170215.8,286047000.6,N
1511170235.6,286047001.1,N
1511170255.5,286047004.3,N
1511170275.3,286047000.6,N
1511170295.1,286047000.8,N
1511170315.9,286046999.0,N
1511170335.7,286046996.0,N
1511170355.5,286046996.3,N
1511170375.3,286046996.0,N
1511170395.2,286046994.8,N
1511170415.0,286046995.1,N
1511170415.9,286046995.1,N
1511170435.7,286046997.1,N
1511170455.6,286046997.0,N
1511170475.4,286046994.3,N
1511170495.2,286046993.2,N
1511170515.1,286046990.2,N
1511170516.0,286046990.2,N
1511170535.8,286046986.1,N
1511170555.6,286046982.5,Y
1511170575.5,286046987.4,P
1511170595.3,286046990.7,N
1511170615.1,286046985.7,P
1511170635.9,286046989.5,N
1511170655.7,286046989.7,N
1511170675.5,286046986.2,Y
1511170695.4,286046992.0,P
1511170715.2,286046990.1,P
1511170735.0,286046992.7,P
1511170735.9,286046992.7,Y
1511170755.8,286046999.0,P
1511170775.6,286046997.3,N
1511170795.4,286046997.7,N
1511170815.3,286046995.3,N
1511170835.1,286046994.3,N
1511170836.0,286046994.3,N
1511170855.8,286046995.8,N
1511170875.7,286046998.7,N
1511170895.5,286046999.9,N
1511170915.3,286047003.0,N
1511170935.1,286047003.6,N
1511170955.9,286047002.0,N
1511170975.7,286047001.8,N
1511170995.5,286046998.6,N
1511171015.4,286046996.7,N
1511171035.2,286046996.4,N
1511171055.0,286046993.9,N
1511171055.9,286046993.9,N
1511171075.8,286046992.0,N
1511171095.6,286046989.8,N
1511171115.4,286046989.0,N
1511171135.3,286046990.1,N
1511171155.1,286046993.5,N
1511171156.0,286046993.5,N
1511171175.8,286046998.3,N
1511171195.7,286047002.4,N
1511171215.5,286047001.5,N
1511171235.3,286047000.3,N
1511171255.2,286046995.1,N
1511171275.9,286046994.6,N
1511171295.7,286046994.5,N
1511171315.5,286046994.4,N
1511171335.4,286046993.5,N
1511171355.2,286046995.7,N
1511171375.0,286046992.0,N
1511171375.9,286046992.0,N
1511171395.8,286046988.9,N
1511171415.6,286046991.6,N
1511171435.4,286046986.5,Y
1511171455.3,286046989.1,P
1511171475.1,286046991.0,N
1511171495.8,286046994.5,N
1511171515.7,286046997.6,N
1511171535.5,286046997.3,N
1511171555.3,286047001.2,N
1511171575.2,286046999.1,N
1511171595.9,286046995.4,N
1511171615.7,286046992.3,N
1511171635.6,286046997.8,N
1511171655.4,286046996.8,N
1511171675.2,286046993.9,N
1511171695.0,286046993.4,N
1511171695.9,286046993.4,N
1511171715.8,286046995.7,N
1511171735.6,286046993.6,N
1511171755.4,286046990.9,Y
1511171775.3,286046994.4,P
1511171795.1,286046994.8,P
1511171815.8,286046990.1,P
1511171835.7,286046989.5,Y
1511171855.5,286046997.4,P
1511171875.3,286046998.1,N
1511171895.2,286047005.6,N
1511171915.0,286047001.8,N
1511171915.9,286047001.8,N
1511171935.7,286047002.5,N
1511171955.6,286047004.7,N
1511171975.4,286047008.5,N
1511171995.2,286047006.7,N
